User: anonymous   Login
Location: Dammartin
(48.9032°N, 1.6195°E)
Time: 12:57:42
(UTC+00:00)
Language:

AO-73 - Orbit

View from above orbital plane
View from above orbital plane
View from above satellite
View from above satellite

Ground track
Ground track

The orbit data is extracted from the following two-line orbital elements,

1 39444U 13066AE  23334.87461333  .00008267  00000-0  86649-3 0  9999
2 39444  97.6953 293.7978 0053044  82.1959 278.5276 14.88757402541014
Epoch (UTC): 30 November 2023 20:59:26
Eccentricity: 0.0053044
inclination: 97.6953°
perigee height: 565 km
apogee height: 639 km
right ascension of ascending node: 293.7978°
argument of perigee: 82.1959°
revolutions per day: 14.88757402
mean anomaly at epoch: 278.5276°
orbit number at epoch: 54101

The dashed part of the orbit path shows where the satellite is in the earth's shadow,  

DLR